Tracking 30995 objects as of 5-Jul-2025
HD Live streaming from Space Station
objects crossing your sky now

DELTA 1 DEB *

Track DELTA 1 DEB * now!
10-day predictions


NORAD ID: 8791
Int'l Code: 1966-087F
Perigee: 1,305.5 km
Apogee: 1,523.8 km
Inclination: 101.6 °
Period: 113.9 minutes
Semi major axis: 7785 km
RCS: 0.0151 m2 (small)
Launch date: October 2, 1966
Source: United States (US)
Launch site: AIR FORCE WESTERN TEST RANGE (AFWTR)

Note: This is SATELLITE DEBRIS
Your satellite tracking list
PSLV DEB
Track 1 satellite(s)




NASA's NSSDC Master Catalog

Two Line Element Set (TLE):
1  8791U 66087F   25183.89835655  .00000310  00000-0  18708-2 0  9990
2  8791 101.6049 159.7687 0140224 170.2301 218.7606 12.63750896700473
Source of the keplerian elements: AFSPC